Time,TemperatureF,DewpointF,PressureIn,WindDirection,WindDirectionDegrees,WindSpeedMPH,WindSpeedGustMPH,Humidity,HourlyPrecipIn,Conditions,Clouds,dailyrainin,SoftwareType,DateUTC
2013-02-24 00:00:00,23.8,22.6,29.82,ENE,68,2.0,6.0,95,0.00,,,0.00,WUHU216DAVISVP2,2013-02-24 05:00:00,
2013-02-24 00:04:00,23.8,22.5,29.82,ENE,68,2.0,5.0,95,0.00,,,0.00,WUHU216DAVISVP2,2013-02-24 05:04:00,
2013-02-24 00:09:00,23.8,22.5,29.82,ENE,70,4.0,6.0,95,0.00,,,0.00,WUHU216DAVISVP2,2013-02-24 05:09:00,
2013-02-24 00:14:00,23.8,22.6,29.82,ENE,58,2.0,6.0,95,0.00,,,0.00,WUHU216DAVISVP2,2013-02-24 05:14:00,
2013-02-24 00:19:00,23.8,22.5,29.82,ENE,77,3.0,6.0,95,0.00,,,0.00,WUHU216DAVISVP2,2013-02-24 05:19:00,
2013-02-24 00:24:00,23.8,22.5,29.82,ENE,72,6.0,7.0,95,0.00,,,0.00,WUHU216DAVISVP2,2013-02-24 05:24:00,
2013-02-24 00:29:00,23.8,22.5,29.82,East,82,3.0,8.0,95,0.00,,,0.00,WUHU216DAVISVP2,2013-02-24 05:29:00,
2013-02-24 00:30:00,23.8,22.6,29.82,ENE,68,3.0,8.0,95,0.00,,,0.00,WUHU216DAVISVP2,2013-02-24 05:30:00,
2013-02-24 00:34:00,23.8,22.5,29.82,ENE,60,3.0,8.0,95,0.00,,,0.00,WUHU216DAVISVP2,2013-02-24 05:34:00,
2013-02-24 00:39:00,23.9,22.7,29.82,NE,39,2.0,7.0,95,0.00,,,0.00,WUHU216DAVISVP2,2013-02-24 05:39:00,
2013-02-24 00:45:00,23.9,22.7,29.82,NE,47,2.0,6.0,95,0.00,,,0.00,WUHU216DAVISVP2,2013-02-24 05:45:00,
2013-02-24 00:50:00,23.9,22.6,29.82,ENE,63,2.0,7.0,95,0.00,,,0.00,WUHU216DAVISVP2,2013-02-24 05:50:00,
2013-02-24 00:55:00,23.9,22.6,29.82,ENE,60,4.0,7.0,95,0.00,,,0.00,WUHU216DAVISVP2,2013-02-24 05:55:00,
2013-02-24 01:00:00,24.0,22.7,29.82,ENE,68,3.0,7.0,95,0.00,,,0.00,WUHU216DAVISVP2,2013-02-24 06:00:00,
2013-02-24 01:05:00,24.0,22.7,29.82,NE,56,2.0,6.0,95,0.00,,,0.00,WUHU216DAVISVP2,2013-02-24 06:05:00,
2013-02-24 01:10:00,24.1,22.8,29.82,ENE,67,4.0,6.0,95,0.00,,,0.00,WUHU216DAVISVP2,2013-02-24 06:10:00,
2013-02-24 01:15:00,24.2,23.0,29.82,ENE,75,2.0,6.0,95,0.00,,,0.00,WUHU216DAVISVP2,2013-02-24 06:15:00,
2013-02-24 01:20:00,24.2,22.9,29.82,ENE,75,2.0,6.0,95,0.00,,,0.00,WUHU216DAVISVP2,2013-02-24 06:20:00,
2013-02-24 01:25:00,24.3,23.0,29.82,ESE,117,3.0,6.0,95,0.00,,,0.00,WUHU216DAVISVP2,2013-02-24 06:25:00,
2013-02-24 01:30:00,24.3,23.1,29.82,ENE,63,3.0,6.0,95,0.00,,,0.00,WUHU216DAVISVP2,2013-02-24 06:30:00,
2013-02-24 01:36:00,24.3,23.0,29.82,North,356,3.0,6.0,95,0.00,,,0.00,WUHU216DAVISVP2,2013-02-24 06:36:00,
2013-02-24 01:41:00,24.3,23.0,29.83,NE,52,6.0,7.0,95,0.00,,,0.00,WUHU216DAVISVP2,2013-02-24 06:41:00,
2013-02-24 01:46:00,24.4,23.1,29.83,ENE,62,4.0,7.0,95,0.00,,,0.00,WUHU216DAVISVP2,2013-02-24 06:46:00,
2013-02-24 01:51:00,24.4,23.2,29.83,NE,36,3.0,6.0,95,0.00,,,0.00,WUHU216DAVISVP2,2013-02-24 06:51:00,
2013-02-24 01:56:00,24.4,23.2,29.83,ENE,60,3.0,6.0,95,0.00,,,0.00,WUHU216DAVISVP2,2013-02-24 06:56:00,
2013-02-24 02:00:00,24.4,23.2,29.83,ENE,68,3.0,9.0,95,0.00,,,0.00,WUHU216DAVISVP2,2013-02-24 07:00:00,
2013-02-24 02:01:00,24.4,23.2,29.83,ENE,58,3.0,9.0,95,0.00,,,0.00,WUHU216DAVISVP2,2013-02-24 07:01:00,
2013-02-24 02:06:00,24.4,23.2,29.83,ENE,60,2.0,9.0,95,0.00,,,0.00,WUHU216DAVISVP2,2013-02-24 07:06:00,
2013-02-24 02:11:00,24.4,23.2,29.84,ENE,62,4.0,8.0,95,0.00,,,0.00,WUHU216DAVISVP2,2013-02-24 07:11:00,
2013-02-24 02:16:00,24.4,23.1,29.84,ENE,63,4.0,8.0,95,0.00,,,0.00,WUHU216DAVISVP2,2013-02-24 07:16:00,
2013-02-24 02:21:00,24.3,23.1,29.84,NE,49,4.0,6.0,95,0.00,,,0.00,WUHU216DAVISVP2,2013-02-24 07:21:00,
2013-02-24 02:26:00,24.3,23.0,29.84,ENE,68,0.0,6.0,95,0.00,,,0.00,WUHU216DAVISVP2,2013-02-24 07:26:00,
2013-02-24 02:30:00,24.3,23.1,29.84,ENE,68,3.0,7.0,95,0.00,,,0.00,WUHU216DAVISVP2,2013-02-24 07:30:00,
2013-02-24 02:31:00,24.3,23.0,29.84,ENE,72,2.0,6.0,95,0.00,,,0.00,WUHU216DAVISVP2,2013-02-24 07:31:00,
2013-02-24 02:36:00,24.3,23.0,29.84,East,91,3.0,5.0,95,0.00,,,0.00,WUHU216DAVISVP2,2013-02-24 07:36:00,
2013-02-24 02:42:00,24.3,23.0,29.84,East,95,3.0,5.0,95,0.00,,,0.00,WUHU216DAVISVP2,2013-02-24 07:42:00,
2013-02-24 02:47:00,24.3,23.0,29.84,East,85,5.0,6.0,95,0.00,,,0.00,WUHU216DAVISVP2,2013-02-24 07:47:00,
2013-02-24 02:52:00,24.3,23.0,29.84,East,86,6.0,6.0,95,0.00,,,0.00,WUHU216DAVISVP2,2013-02-24 07:52:00,
2013-02-24 02:57:00,24.4,23.1,29.84,East,85,1.0,8.0,95,0.00,,,0.00,WUHU216DAVISVP2,2013-02-24 07:57:00,
2013-02-24 03:00:00,24.3,23.1,29.84,ENE,68,3.0,8.0,95,0.00,,,0.00,WUHU216DAVISVP2,2013-02-24 08:00:00,
2013-02-24 03:02:00,24.3,23.0,29.84,NE,54,2.0,8.0,95,0.00,,,0.00,WUHU216DAVISVP2,2013-02-24 08:02:00,
2013-02-24 03:07:00,24.3,23.0,29.84,East,83,4.0,7.0,95,0.00,,,0.00,WUHU216DAVISVP2,2013-02-24 08:07:00,
2013-02-24 03:12:00,24.3,23.0,29.84,ENE,65,3.0,8.0,95,0.00,,,0.00,WUHU216DAVISVP2,2013-02-24 08:12:00,
2013-02-24 03:17:00,24.3,23.0,29.84,ENE,68,4.0,8.0,95,0.00,,,0.00,WUHU216DAVISVP2,2013-02-24 08:17:00,
2013-02-24 03:22:00,24.4,23.1,29.84,ENE,68,3.0,8.0,95,0.00,,,0.00,WUHU216DAVISVP2,2013-02-24 08:22:00,
2013-02-24 03:27:00,24.4,23.1,29.84,East,96,4.0,8.0,95,0.00,,,0.00,WUHU216DAVISVP2,2013-02-24 08:27:00,
2013-02-24 03:30:00,24.4,23.2,29.84,ENE,68,4.0,8.0,95,0.00,,,0.00,WUHU216DAVISVP2,2013-02-24 08:30:00,
2013-02-24 03:32:00,24.4,23.1,29.84,ENE,71,4.0,7.0,95,0.00,,,0.00,WUHU216DAVISVP2,2013-02-24 08:32:00,
2013-02-24 03:37:00,24.4,23.2,29.84,NE,47,4.0,7.0,95,0.00,,,0.00,WUHU216DAVISVP2,2013-02-24 08:37:00,
2013-02-24 03:42:00,24.3,23.0,29.84,ENE,72,6.0,8.0,95,0.00,,,0.00,WUHU216DAVISVP2,2013-02-24 08:42:00,
2013-02-24 03:48:00,24.4,23.1,29.84,ENE,66,3.0,8.0,95,0.00,,,0.00,WUHU216DAVISVP2,2013-02-24 08:48:00,
2013-02-24 03:53:00,24.4,23.1,29.84,East,85,4.0,7.0,95,0.00,,,0.00,WUHU216DAVISVP2,2013-02-24 08:53:00,
2013-02-24 03:58:00,24.4,22.9,29.85,NE,56,2.0,7.0,94,0.00,,,0.00,WUHU216DAVISVP2,2013-02-24 08:58:00,
2013-02-24 04:00:00,24.4,22.9,29.85,ENE,68,4.0,8.0,94,0.00,,,0.00,WUHU216DAVISVP2,2013-02-24 09:00:00,
2013-02-24 04:03:00,24.5,23.0,29.85,East,95,3.0,7.0,94,0.00,,,0.00,WUHU216DAVISVP2,2013-02-24 09:03:00,
2013-02-24 04:08:00,24.4,22.9,29.84,ENE,58,4.0,7.0,94,0.00,,,0.00,WUHU216DAVISVP2,2013-02-24 09:08:00,
2013-02-24 04:13:00,24.5,23.0,29.84,ENE,70,2.0,6.0,94,0.00,,,0.00,WUHU216DAVISVP2,2013-02-24 09:13:00,
2013-02-24 04:18:00,24.5,23.0,29.84,ENE,66,2.0,6.0,94,0.00,,,0.00,WUHU216DAVISVP2,2013-02-24 09:18:00,
2013-02-24 04:23:00,24.5,23.0,29.84,ENE,67,2.0,6.0,94,0.00,,,0.00,WUHU216DAVISVP2,2013-02-24 09:23:00,
2013-02-24 04:28:00,24.6,23.1,29.84,ENE,72,4.0,6.0,94,0.00,,,0.00,WUHU216DAVISVP2,2013-02-24 09:28:00,
2013-02-24 04:30:00,24.5,23.0,29.84,ENE,68,3.0,7.0,94,0.00,,,0.00,WUHU216DAVISVP2,2013-02-24 09:30:00,
2013-02-24 04:33:00,24.5,23.0,29.84,East,79,2.0,6.0,94,0.00,,,0.00,WUHU216DAVISVP2,2013-02-24 09:33:00,
2013-02-24 04:38:00,24.6,23.1,29.84,NE,48,4.0,5.0,94,0.00,,,0.00,WUHU216DAVISVP2,2013-02-24 09:38:00,
2013-02-24 04:43:00,24.6,23.1,29.84,NE,43,4.0,5.0,94,0.00,,,0.00,WUHU216DAVISVP2,2013-02-24 09:43:00,
2013-02-24 04:48:00,24.6,23.1,29.85,ENE,66,3.0,7.0,94,0.00,,,0.00,WUHU216DAVISVP2,2013-02-24 09:48:00,
2013-02-24 04:53:00,24.5,23.0,29.84,NE,51,2.0,7.0,94,0.00,,,0.00,WUHU216DAVISVP2,2013-02-24 09:53:00,
2013-02-24 04:59:00,24.5,23.0,29.84,NE,39,4.0,6.0,94,0.00,,,0.00,WUHU216DAVISVP2,2013-02-24 09:59:00,
2013-02-24 05:00:00,24.5,23.0,29.85,NE,45,3.0,7.0,94,0.00,,,0.00,WUHU216DAVISVP2,2013-02-24 10:00:00,
2013-02-24 05:04:00,24.6,23.1,29.85,NE,52,3.0,5.0,94,0.00,,,0.00,WUHU216DAVISVP2,2013-02-24 10:04:00,
2013-02-24 05:09:00,24.6,23.1,29.85,NE,50,3.0,5.0,94,0.00,,,0.00,WUHU216DAVISVP2,2013-02-24 10:09:00,
2013-02-24 05:14:00,24.6,23.1,29.85,ENE,68,2.0,5.0,94,0.00,,,0.00,WUHU216DAVISVP2,2013-02-24 10:14:00,
2013-02-24 05:19:00,24.7,23.2,29.85,ENE,72,4.0,6.0,94,0.00,,,0.00,WUHU216DAVISVP2,2013-02-24 10:19:00,
2013-02-24 05:24:00,24.7,23.2,29.85,NE,51,4.0,6.0,94,0.00,,,0.00,WUHU216DAVISVP2,2013-02-24 10:24:00,
2013-02-24 05:29:00,24.8,23.3,29.86,ENE,72,4.0,7.0,94,0.00,,,0.00,WUHU216DAVISVP2,2013-02-24 10:29:00,
2013-02-24 05:30:00,24.8,23.3,29.86,NE,45,3.0,7.0,94,0.00,,,0.00,WUHU216DAVISVP2,2013-02-24 10:30:00,
2013-02-24 05:34:00,24.9,23.2,29.86,NE,53,3.0,7.0,93,0.00,,,0.00,WUHU216DAVISVP2,2013-02-24 10:34:00,
2013-02-24 05:39:00,25.0,23.3,29.86,ENE,64,3.0,6.0,93,0.00,,,0.00,WUHU216DAVISVP2,2013-02-24 10:39:00,
2013-02-24 05:44:00,25.0,23.2,29.86,ENE,63,6.0,10.0,93,0.00,,,0.00,WUHU216DAVISVP2,2013-02-24 10:44:00,
2013-02-24 05:49:00,25.1,23.3,29.86,ENE,75,5.0,10.0,93,0.00,,,0.00,WUHU216DAVISVP2,2013-02-24 10:49:00,
2013-02-24 05:54:00,25.2,23.4,29.86,ESE,103,4.0,9.0,93,0.00,,,0.00,WUHU216DAVISVP2,2013-02-24 10:54:00,
2013-02-24 05:59:00,25.3,23.3,29.86,ENE,65,3.0,9.0,92,0.00,,,0.00,WUHU216DAVISVP2,2013-02-24 10:59:00,
2013-02-24 06:00:00,25.3,23.3,29.86,ENE,68,4.0,10.0,92,0.00,,,0.00,WUHU216DAVISVP2,2013-02-24 11:00:00,
2013-02-24 06:04:00,25.4,23.4,29.87,East,90,2.0,8.0,92,0.00,,,0.00,WUHU216DAVISVP2,2013-02-24 11:04:00,
2013-02-24 06:09:00,25.4,23.4,29.87,NE,56,4.0,7.0,92,0.00,,,0.00,WUHU216DAVISVP2,2013-02-24 11:09:00,
2013-02-24 06:15:00,25.4,23.4,29.87,NE,37,2.0,7.0,92,0.00,,,0.00,WUHU216DAVISVP2,2013-02-24 11:15:00,
2013-02-24 06:20:00,25.5,23.5,29.87,ENE,75,6.0,7.0,92,0.00,,,0.00,WUHU216DAVISVP2,2013-02-24 11:20:00,
2013-02-24 06:25:00,25.6,23.5,29.87,NE,50,3.0,7.0,92,0.00,,,0.00,WUHU216DAVISVP2,2013-02-24 11:25:00,
2013-02-24 06:30:00,25.7,23.6,29.87,NE,56,4.0,7.0,92,0.00,,,0.00,WUHU216DAVISVP2,2013-02-24 11:30:00,
2013-02-24 06:35:00,25.8,23.7,29.88,NE,51,3.0,7.0,92,0.00,,,0.00,WUHU216DAVISVP2,2013-02-24 11:35:00,
2013-02-24 06:40:00,25.8,23.7,29.88,ENE,76,2.0,7.0,92,0.00,,,0.00,WUHU216DAVISVP2,2013-02-24 11:40:00,
2013-02-24 06:45:00,25.9,23.8,29.88,East,79,2.0,6.0,92,0.00,,,0.00,WUHU216DAVISVP2,2013-02-24 11:45:00,
2013-02-24 06:50:00,25.9,23.8,29.89,ENE,61,4.0,6.0,92,0.00,,,0.00,WUHU216DAVISVP2,2013-02-24 11:50:00,
2013-02-24 06:55:00,25.9,23.8,29.89,NE,54,2.0,5.0,92,0.00,,,0.00,WUHU216DAVISVP2,2013-02-24 11:55:00,
2013-02-24 07:00:00,26.0,23.9,29.89,ENE,68,2.0,5.0,92,0.00,,,0.00,WUHU216DAVISVP2,2013-02-24 12:00:00,
2013-02-24 07:05:00,26.0,23.9,29.89,East,83,2.0,4.0,92,0.00,,,0.00,WUHU216DAVISVP2,2013-02-24 12:05:00,
2013-02-24 07:10:00,26.1,24.0,29.89,ENE,60,1.0,6.0,92,0.00,,,0.00,WUHU216DAVISVP2,2013-02-24 12:10:00,
2013-02-24 07:16:00,26.1,24.0,29.89,East,81,1.0,6.0,92,0.00,,,0.00,WUHU216DAVISVP2,2013-02-24 12:16:00,
2013-02-24 07:21:00,26.1,24.0,29.89,ENE,72,4.0,5.0,92,0.00,,,0.00,WUHU216DAVISVP2,2013-02-24 12:21:00,
2013-02-24 07:26:00,26.2,24.1,29.90,East,96,3.0,5.0,92,0.00,,,0.00,WUHU216DAVISVP2,2013-02-24 12:26:00,
2013-02-24 07:30:00,26.3,24.3,29.90,ENE,68,2.0,6.0,92,0.00,,,0.00,WUHU216DAVISVP2,2013-02-24 12:30:00,
2013-02-24 07:31:00,26.3,24.2,29.90,East,95,2.0,5.0,92,0.00,,,0.00,WUHU216DAVISVP2,2013-02-24 12:31:00,
2013-02-24 07:36:00,26.5,24.7,29.90,ENE,75,4.0,8.0,93,0.00,,,0.00,WUHU216DAVISVP2,2013-02-24 12:36:00,
2013-02-24 07:41:00,26.7,24.9,29.90,East,88,3.0,8.0,93,0.00,,,0.00,WUHU216DAVISVP2,2013-02-24 12:41:00,
2013-02-24 07:46:00,26.8,24.8,29.91,East,101,3.0,8.0,92,0.00,,,0.00,WUHU216DAVISVP2,2013-02-24 12:46:00,
2013-02-24 07:51:00,26.9,24.9,29.91,ENE,72,6.0,7.0,92,0.00,,,0.00,WUHU216DAVISVP2,2013-02-24 12:51:00,
2013-02-24 07:56:00,27.0,25.0,29.91,ENE,75,4.0,7.0,92,0.00,,,0.00,WUHU216DAVISVP2,2013-02-24 12:56:00,
2013-02-24 08:00:00,27.1,25.1,29.91,ENE,68,4.0,8.0,92,0.00,,,0.00,WUHU216DAVISVP2,2013-02-24 13:00:00,
2013-02-24 08:01:00,27.1,25.0,29.91,ENE,75,3.0,7.0,92,0.00,,,0.00,WUHU216DAVISVP2,2013-02-24 13:01:00,
2013-02-24 08:06:00,27.2,25.1,29.91,East,82,4.0,7.0,92,0.00,,,0.00,WUHU216DAVISVP2,2013-02-24 13:06:00,
2013-02-24 08:11:00,27.4,25.3,29.91,ENE,66,3.0,6.0,92,0.00,,,0.00,WUHU216DAVISVP2,2013-02-24 13:11:00,
2013-02-24 08:16:00,27.5,25.4,29.91,ENE,62,4.0,6.0,92,0.00,,,0.00,WUHU216DAVISVP2,2013-02-24 13:16:00,
2013-02-24 08:21:00,27.7,25.6,29.91,ENE,76,4.0,7.0,92,0.00,,,0.00,WUHU216DAVISVP2,2013-02-24 13:21:00,
2013-02-24 08:27:00,27.8,25.7,29.92,ENE,63,3.0,7.0,92,0.00,,,0.00,WUHU216DAVISVP2,2013-02-24 13:27:00,
2013-02-24 08:30:00,27.8,25.5,29.92,ENE,68,4.0,8.0,91,0.00,,,0.00,WUHU216DAVISVP2,2013-02-24 13:30:00,
2013-02-24 08:32:00,27.9,25.6,29.92,NE,54,5.0,8.0,91,0.00,,,0.00,WUHU216DAVISVP2,2013-02-24 13:32:00,
2013-02-24 08:37:00,28.0,25.7,29.92,East,86,4.0,10.0,91,0.00,,,0.00,WUHU216DAVISVP2,2013-02-24 13:37:00,
2013-02-24 08:42:00,28.1,25.8,29.92,ESE,108,4.0,10.0,91,0.00,,,0.00,WUHU216DAVISVP2,2013-02-24 13:42:00,
2013-02-24 08:47:00,28.2,25.6,29.92,ESE,108,6.0,9.0,90,0.00,,,0.00,WUHU216DAVISVP2,2013-02-24 13:47:00,
2013-02-24 08:52:00,28.4,25.8,29.92,East,87,7.0,9.0,90,0.00,,,0.00,WUHU216DAVISVP2,2013-02-24 13:52:00,
2013-02-24 08:57:00,28.7,26.1,29.93,East,85,5.0,9.0,90,0.00,,,0.00,WUHU216DAVISVP2,2013-02-24 13:57:00,
2013-02-24 09:00:00,28.9,26.1,29.93,East,90,5.0,10.0,89,0.00,,,0.00,WUHU216DAVISVP2,2013-02-24 14:00:00,
2013-02-24 09:02:00,28.9,26.0,29.93,East,86,6.0,10.0,89,0.00,,,0.00,WUHU216DAVISVP2,2013-02-24 14:02:00,
2013-02-24 09:07:00,29.1,26.2,29.93,East,85,7.0,10.0,89,0.00,,,0.00,WUHU216DAVISVP2,2013-02-24 14:07:00,
2013-02-24 09:12:00,29.2,26.4,29.93,East,79,6.0,9.0,89,0.00,,,0.00,WUHU216DAVISVP2,2013-02-24 14:12:00,
2013-02-24 09:17:00,29.3,26.4,29.93,East,88,7.0,9.0,89,0.00,,,0.00,WUHU216DAVISVP2,2013-02-24 14:17:00,
2013-02-24 09:22:00,29.4,26.5,29.93,East,86,8.0,10.0,89,0.00,,,0.00,WUHU216DAVISVP2,2013-02-24 14:22:00,
2013-02-24 09:27:00,29.4,26.5,29.94,ENE,75,5.0,10.0,89,0.00,,,0.00,WUHU216DAVISVP2,2013-02-24 14:27:00,
2013-02-24 09:30:00,29.5,26.4,29.94,East,90,6.0,11.0,88,0.00,,,0.00,WUHU216DAVISVP2,2013-02-24 14:30:00,
2013-02-24 09:32:00,29.6,26.5,29.94,East,101,4.0,11.0,88,0.00,,,0.00,WUHU216DAVISVP2,2013-02-24 14:32:00,
2013-02-24 09:38:00,29.7,26.5,29.94,ENE,71,5.0,12.0,88,0.00,,,0.00,WUHU216DAVISVP2,2013-02-24 14:38:00,
2013-02-24 09:43:00,29.9,26.7,29.94,East,86,5.0,12.0,88,0.00,,,0.00,WUHU216DAVISVP2,2013-02-24 14:43:00,
2013-02-24 09:48:00,30.0,26.6,29.95,ESE,116,2.0,11.0,87,0.00,,,0.00,WUHU216DAVISVP2,2013-02-24 14:48:00,
2013-02-24 09:53:00,30.0,26.8,29.95,ESE,123,2.0,11.0,88,0.00,,,0.00,WUHU216DAVISVP2,2013-02-24 14:53:00,
2013-02-24 09:58:00,30.2,26.8,29.95,East,99,5.0,10.0,87,0.00,,,0.00,WUHU216DAVISVP2,2013-02-24 14:58:00,
2013-02-24 10:00:00,30.6,27.2,29.95,East,90,5.0,12.0,87,0.00,,,0.00,WUHU216DAVISVP2,2013-02-24 15:00:00,
2013-02-24 10:03:00,30.7,27.3,29.95,ESE,116,8.0,10.0,87,0.00,,,0.00,WUHU216DAVISVP2,2013-02-24 15:03:00,
2013-02-24 10:08:00,31.0,27.3,29.95,East,98,4.0,11.0,86,0.00,,,0.00,WUHU216DAVISVP2,2013-02-24 15:08:00,
2013-02-24 10:13:00,31.3,27.3,29.95,ESE,113,9.0,11.0,85,0.00,,,0.00,WUHU216DAVISVP2,2013-02-24 15:13:00,
2013-02-24 10:18:00,31.2,27.2,29.96,East,97,5.0,12.0,85,0.00,,,0.00,WUHU216DAVISVP2,2013-02-24 15:18:00,
2013-02-24 10:23:00,31.1,27.1,29.96,SE,124,8.0,12.0,85,0.00,,,0.00,WUHU216DAVISVP2,2013-02-24 15:23:00,
2013-02-24 10:28:00,31.5,27.5,29.96,SSE,148,5.0,11.0,85,0.00,,,0.00,WUHU216DAVISVP2,2013-02-24 15:28:00,
2013-02-24 10:30:00,31.6,27.3,29.96,East,90,6.0,12.0,84,0.00,,,0.00,WUHU216DAVISVP2,2013-02-24 15:30:00,
2013-02-24 10:33:00,31.7,27.4,29.96,ESE,115,5.0,11.0,84,0.00,,,0.00,WUHU216DAVISVP2,2013-02-24 15:33:00,
2013-02-24 10:38:00,31.9,27.0,29.96,ENE,76,5.0,11.0,82,0.00,,,0.00,WUHU216DAVISVP2,2013-02-24 15:38:00,
2013-02-24 10:43:00,32.2,27.3,29.96,East,94,5.0,11.0,82,0.00,,,0.00,WUHU216DAVISVP2,2013-02-24 15:43:00,
2013-02-24 10:49:00,32.7,27.8,29.97,East,81,3.0,11.0,82,0.00,,,0.00,WUHU216DAVISVP2,2013-02-24 15:49:00,
2013-02-24 10:54:00,33.0,27.5,29.97,SE,126,9.0,12.0,80,0.00,,,0.00,WUHU216DAVISVP2,2013-02-24 15:54:00,
2013-02-24 10:59:00,32.5,27.0,29.97,East,98,5.0,16.0,80,0.00,,,0.00,WUHU216DAVISVP2,2013-02-24 15:59:00,
2013-02-24 11:00:00,32.5,27.3,29.97,East,90,6.0,16.0,81,0.00,,,0.00,WUHU216DAVISVP2,2013-02-24 16:00:00,
2013-02-24 11:04:00,32.8,27.3,29.97,South,170,3.0,16.0,80,0.00,,,0.00,WUHU216DAVISVP2,2013-02-24 16:04:00,
2013-02-24 11:09:00,32.8,27.0,29.97,ENE,70,5.0,14.0,79,0.00,,,0.00,WUHU216DAVISVP2,2013-02-24 16:09:00,
2013-02-24 11:14:00,32.9,27.1,29.97,ESE,110,4.0,14.0,79,0.00,,,0.00,WUHU216DAVISVP2,2013-02-24 16:14:00,
2013-02-24 11:19:00,32.8,27.0,29.98,East,95,9.0,12.0,79,0.00,,,0.00,WUHU216DAVISVP2,2013-02-24 16:19:00,
2013-02-24 11:26:00,33.2,27.1,29.97,SE,134,5.0,11.0,78,0.00,,,0.00,WUHU216DAVISVP2,2013-02-24 16:26:00,
2013-02-24 11:30:00,33.4,26.6,29.97,East,90,6.0,12.0,76,0.00,,,0.00,WUHU216DAVISVP2,2013-02-24 16:30:00,
2013-02-24 11:31:00,33.4,26.7,29.97,East,83,10.0,11.0,76,0.00,,,0.00,WUHU216DAVISVP2,2013-02-24 16:31:00,
2013-02-24 11:36:00,33.1,26.4,29.98,SE,136,7.0,12.0,76,0.00,,,0.00,WUHU216DAVISVP2,2013-02-24 16:36:00,
2013-02-24 11:41:00,34.0,26.6,29.97,SE,132,11.0,13.0,74,0.00,,,0.00,WUHU216DAVISVP2,2013-02-24 16:41:00,
2013-02-24 11:47:00,33.7,25.7,29.97,ESE,116,5.0,13.0,72,0.00,,,0.00,WUHU216DAVISVP2,2013-02-24 16:47:00,
2013-02-24 11:52:00,33.6,25.6,29.97,ESE,116,8.0,13.0,72,0.00,,,0.00,WUHU216DAVISVP2,2013-02-24 16:52:00,
2013-02-24 11:57:00,33.8,26.1,29.98,East,84,10.0,12.0,73,0.00,,,0.00,WUHU216DAVISVP2,2013-02-24 16:57:00,
2013-02-24 12:00:00,33.9,25.8,29.98,ESE,113,6.0,13.0,72,0.00,,,0.00,WUHU216DAVISVP2,2013-02-24 17:00:00,
2013-02-24 12:02:00,33.9,25.9,29.98,SE,136,8.0,12.0,72,0.00,,,0.00,WUHU216DAVISVP2,2013-02-24 17:02:00,
2013-02-24 12:07:00,33.5,25.4,29.98,ESE,117,4.0,12.0,72,0.00,,,0.00,WUHU216DAVISVP2,2013-02-24 17:07:00,
2013-02-24 12:12:00,33.2,25.5,29.98,SSE,153,8.0,13.0,73,0.00,,,0.00,WUHU216DAVISVP2,2013-02-24 17:12:00,
2013-02-24 12:17:00,32.9,25.9,29.98,ESE,111,3.0,13.0,75,0.00,,,0.00,WUHU216DAVISVP2,2013-02-24 17:17:00,
2013-02-24 12:22:00,32.9,26.2,29.98,ESE,113,5.0,12.0,76,0.00,,,0.00,WUHU216DAVISVP2,2013-02-24 17:22:00,
2013-02-24 12:27:00,32.7,26.0,29.98,ESE,106,3.0,12.0,76,0.00,,,0.00,WUHU216DAVISVP2,2013-02-24 17:27:00,
2013-02-24 12:30:00,33.3,26.5,29.98,ESE,113,6.0,13.0,76,0.00,,,0.00,WUHU216DAVISVP2,2013-02-24 17:30:00,
2013-02-24 12:32:00,33.6,26.9,29.99,SE,126,6.0,12.0,76,0.00,,,0.00,WUHU216DAVISVP2,2013-02-24 17:32:00,
2013-02-24 12:37:00,34.3,26.9,29.98,ESE,115,8.0,12.0,74,0.00,,,0.00,WUHU216DAVISVP2,2013-02-24 17:37:00,
2013-02-24 12:42:00,35.0,26.9,29.98,SE,145,9.0,12.0,72,0.00,,,0.00,WUHU216DAVISVP2,2013-02-24 17:42:00,
2013-02-24 12:48:00,35.1,26.4,29.98,ESE,110,4.0,13.0,70,0.00,,,0.00,WUHU216DAVISVP2,2013-02-24 17:48:00,
2013-02-24 12:53:00,35.6,26.2,29.98,ESE,109,4.0,13.0,68,0.00,,,0.00,WUHU216DAVISVP2,2013-02-24 17:53:00,
2013-02-24 12:58:00,35.9,26.0,29.98,ENE,72,7.0,13.0,67,0.00,,,0.00,WUHU216DAVISVP2,2013-02-24 17:58:00,
2013-02-24 13:00:00,35.6,25.4,29.98,SE,135,6.0,13.0,66,0.00,,,0.00,WUHU216DAVISVP2,2013-02-24 18:00:00,
2013-02-24 13:03:00,35.7,25.4,29.98,East,98,3.0,13.0,66,0.00,,,0.00,WUHU216DAVISVP2,2013-02-24 18:03:00,
2013-02-24 13:08:00,35.5,25.6,29.98,ENE,77,4.0,13.0,67,0.00,,,0.00,WUHU216DAVISVP2,2013-02-24 18:08:00,
2013-02-24 13:13:00,36.3,26.4,29.98,ENE,73,7.0,12.0,67,0.00,,,0.00,WUHU216DAVISVP2,2013-02-24 18:13:00,
2013-02-24 13:18:00,35.5,25.7,29.98,East,91,9.0,13.0,67,0.00,,,0.00,WUHU216DAVISVP2,2013-02-24 18:18:00,
2013-02-24 13:23:00,34.7,25.3,29.98,East,94,8.0,13.0,68,0.00,,,0.00,WUHU216DAVISVP2,2013-02-24 18:23:00,
2013-02-24 13:28:00,34.2,25.5,29.99,SE,128,2.0,13.0,70,0.01,,,0.01,WUHU216DAVISVP2,2013-02-24 18:28:00,
2013-02-24 13:30:00,34.2,25.4,29.99,East,90,6.0,13.0,70,0.00,,,0.00,WUHU216DAVISVP2,2013-02-24 18:30:00,
2013-02-24 13:33:00,34.1,25.4,29.99,ENE,77,9.0,13.0,70,0.01,,,0.01,WUHU216DAVISVP2,2013-02-24 18:33:00,
2013-02-24 13:38:00,34.2,25.2,29.99,East,91,4.0,11.0,69,0.02,,,0.02,WUHU216DAVISVP2,2013-02-24 18:38:00,
2013-02-24 13:43:00,34.2,25.2,29.99,SE,126,7.0,11.0,69,0.02,,,0.02,WUHU216DAVISVP2,2013-02-24 18:43:00,
2013-02-24 13:48:00,34.4,25.3,29.99,ESE,107,7.0,11.0,69,0.03,,,0.03,WUHU216DAVISVP2,2013-02-24 18:48:00,
2013-02-24 13:53:00,34.9,25.5,29.98,SE,124,9.0,11.0,68,0.03,,,0.03,WUHU216DAVISVP2,2013-02-24 18:53:00,
2013-02-24 13:58:00,34.9,24.8,29.99,East,83,7.0,14.0,66,0.04,,,0.04,WUHU216DAVISVP2,2013-02-24 18:58:00,
2013-02-24 14:00:00,34.9,24.7,29.99,SE,135,6.0,14.0,66,0.01,,,0.01,WUHU216DAVISVP2,2013-02-24 19:00:00,
2013-02-24 14:04:00,34.8,24.6,29.99,SE,134,7.0,14.0,66,0.04,,,0.04,WUHU216DAVISVP2,2013-02-24 19:04:00,
2013-02-24 14:09:00,34.9,25.1,29.99,SSE,165,5.0,13.0,67,0.05,,,0.05,WUHU216DAVISVP2,2013-02-24 19:09:00,
2013-02-24 14:14:00,35.5,25.7,29.99,NE,54,7.0,13.0,67,0.05,,,0.05,WUHU216DAVISVP2,2013-02-24 19:14:00,
2013-02-24 14:19:00,36.1,25.2,29.99,SE,136,4.0,13.0,64,0.06,,,0.06,WUHU216DAVISVP2,2013-02-24 19:19:00,
2013-02-24 14:24:00,36.5,25.5,29.99,ESE,115,8.0,13.0,64,0.06,,,0.07,WUHU216DAVISVP2,2013-02-24 19:24:00,
2013-02-24 14:29:00,36.6,25.3,29.99,ENE,70,5.0,14.0,63,0.06,,,0.07,WUHU216DAVISVP2,2013-02-24 19:29:00,
2013-02-24 14:30:00,36.5,25.1,29.99,East,90,6.0,14.0,63,0.03,,,0.04,WUHU216DAVISVP2,2013-02-24 19:30:00,
2013-02-24 14:34:00,36.3,25.4,29.99,SE,124,7.0,14.0,64,0.07,,,0.08,WUHU216DAVISVP2,2013-02-24 19:34:00,
2013-02-24 14:39:00,36.4,25.1,29.99,ESE,102,8.0,12.0,63,0.06,,,0.08,WUHU216DAVISVP2,2013-02-24 19:39:00,
2013-02-24 14:44:00,37.0,25.3,29.99,ESE,106,4.0,12.0,62,0.07,,,0.09,WUHU216DAVISVP2,2013-02-24 19:44:00,
2013-02-24 14:49:00,37.4,25.2,29.99,ENE,70,9.0,15.0,61,0.07,,,0.10,WUHU216DAVISVP2,2013-02-24 19:49:00,
2013-02-24 14:54:00,37.6,25.4,29.99,ESE,107,6.0,15.0,61,0.07,,,0.10,WUHU216DAVISVP2,2013-02-24 19:54:00,
2013-02-24 14:59:00,36.4,24.3,29.99,ENE,73,8.0,13.0,61,0.06,,,0.10,WUHU216DAVISVP2,2013-02-24 19:59:00,
2013-02-24 15:00:00,36.2,24.0,29.99,East,90,7.0,15.0,61,0.04,,,0.08,WUHU216DAVISVP2,2013-02-24 20:00:00,
2013-02-24 15:04:00,35.6,23.5,29.99,ENE,72,6.0,13.0,61,0.07,,,0.11,WUHU216DAVISVP2,2013-02-24 20:04:00,
2013-02-24 15:10:00,35.6,23.5,29.99,East,83,5.0,12.0,61,0.06,,,0.11,WUHU216DAVISVP2,2013-02-24 20:10:00,
2013-02-24 15:15:00,35.3,23.2,29.99,East,81,7.0,11.0,61,0.05,,,0.11,WUHU216DAVISVP2,2013-02-24 20:15:00,
2013-02-24 15:20:00,35.1,23.4,30.00,ESE,103,5.0,11.0,62,0.05,,,0.11,WUHU216DAVISVP2,2013-02-24 20:20:00,
2013-02-24 15:25:00,34.9,23.6,30.00,SE,134,7.0,11.0,63,0.04,,,0.11,WUHU216DAVISVP2,2013-02-24 20:25:00,
2013-02-24 15:30:00,34.8,23.9,30.00,SE,133,4.0,11.0,64,0.04,,,0.11,WUHU216DAVISVP2,2013-02-24 20:30:00,
2013-02-24 15:35:00,34.7,23.8,30.00,ESE,122,4.0,11.0,64,0.04,,,0.12,WUHU216DAVISVP2,2013-02-24 20:35:00,
2013-02-24 15:40:00,34.5,23.6,30.00,ESE,110,3.0,10.0,64,0.04,,,0.12,WUHU216DAVISVP2,2013-02-24 20:40:00,
2013-02-24 15:45:00,34.5,23.9,30.01,East,81,4.0,10.0,65,0.03,,,0.12,WUHU216DAVISVP2,2013-02-24 20:45:00,
2013-02-24 15:50:00,34.5,24.0,30.00,ENE,72,7.0,11.0,65,0.02,,,0.12,WUHU216DAVISVP2,2013-02-24 20:50:00,
2013-02-24 15:55:00,34.4,24.3,30.01,East,86,6.0,11.0,66,0.02,,,0.12,WUHU216DAVISVP2,2013-02-24 20:55:00,
2013-02-24 16:00:00,34.4,24.3,30.01,East,87,5.0,10.0,66,0.02,,,0.12,WUHU216DAVISVP2,2013-02-24 21:00:00,
2013-02-24 16:05:00,34.4,24.3,30.01,East,81,3.0,10.0,66,0.01,,,0.12,WUHU216DAVISVP2,2013-02-24 21:05:00,
2013-02-24 16:11:00,34.5,24.4,30.01,ESE,121,4.0,9.0,66,0.01,,,0.12,WUHU216DAVISVP2,2013-02-24 21:11:00,
2013-02-24 16:16:00,34.6,24.5,30.01,East,95,5.0,8.0,66,0.01,,,0.12,WUHU216DAVISVP2,2013-02-24 21:16:00,
2013-02-24 16:21:00,34.5,24.4,30.01,ESE,118,2.0,8.0,66,0.01,,,0.12,WUHU216DAVISVP2,2013-02-24 21:21:00,
2013-02-24 16:26:00,34.4,24.3,30.01,ESE,123,4.0,8.0,66,0.01,,,0.12,WUHU216DAVISVP2,2013-02-24 21:26:00,
2013-02-24 16:30:00,34.3,24.1,30.02,East,90,3.0,8.0,66,0.01,,,0.12,WUHU216DAVISVP2,2013-02-24 21:30:00,
2013-02-24 16:31:00,34.3,24.2,30.02,SE,133,3.0,7.0,66,0.01,,,0.12,WUHU216DAVISVP2,2013-02-24 21:31:00,
2013-02-24 16:36:00,34.3,24.5,30.02,East,85,2.0,7.0,67,0.00,,,0.12,WUHU216DAVISVP2,2013-02-24 21:36:00,
2013-02-24 16:41:00,34.3,24.5,30.02,ENE,73,5.0,7.0,67,0.00,,,0.12,WUHU216DAVISVP2,2013-02-24 21:41:00,
2013-02-24 16:46:00,34.3,24.5,30.02,SE,124,3.0,7.0,67,0.00,,,0.12,WUHU216DAVISVP2,2013-02-24 21:46:00,
2013-02-24 16:51:00,34.3,24.5,30.02,East,94,1.0,7.0,67,0.00,,,0.12,WUHU216DAVISVP2,2013-02-24 21:51:00,
2013-02-24 16:56:00,34.2,24.8,30.02,ESE,105,3.0,5.0,68,0.00,,,0.12,WUHU216DAVISVP2,2013-02-24 21:56:00,
2013-02-24 17:00:00,34.1,24.3,30.02,East,90,3.0,7.0,67,0.00,,,0.12,WUHU216DAVISVP2,2013-02-24 22:00:00,
2013-02-24 17:02:00,34.1,24.3,30.02,East,86,3.0,6.0,67,0.00,,,0.12,WUHU216DAVISVP2,2013-02-24 22:02:00,
2013-02-24 17:07:00,34.0,24.6,30.02,East,79,4.0,7.0,68,0.00,,,0.12,WUHU216DAVISVP2,2013-02-24 22:07:00,
2013-02-24 17:12:00,33.9,24.5,30.02,East,97,2.0,7.0,68,0.00,,,0.12,WUHU216DAVISVP2,2013-02-24 22:12:00,
2013-02-24 17:17:00,33.9,24.8,30.02,ENE,66,2.0,7.0,69,0.00,,,0.12,WUHU216DAVISVP2,2013-02-24 22:17:00,
2013-02-24 17:22:00,33.8,25.0,30.02,East,85,3.0,7.0,70,0.00,,,0.12,WUHU216DAVISVP2,2013-02-24 22:22:00,
2013-02-24 17:27:00,33.8,25.5,30.02,East,87,4.0,7.0,71,0.01,,,0.13,WUHU216DAVISVP2,2013-02-24 22:27:00,
2013-02-24 17:30:00,33.8,25.4,30.03,East,90,3.0,7.0,71,0.00,,,0.12,WUHU216DAVISVP2,2013-02-24 22:30:00,
2013-02-24 17:32:00,33.8,25.1,30.03,ESE,108,1.0,6.0,70,0.01,,,0.13,WUHU216DAVISVP2,2013-02-24 22:32:00,
2013-02-24 17:37:00,33.7,25.4,30.03,East,94,2.0,7.0,71,0.01,,,0.13,WUHU216DAVISVP2,2013-02-24 22:37:00,
2013-02-24 17:42:00,33.7,25.3,30.03,ESE,121,1.0,7.0,71,0.01,,,0.13,WUHU216DAVISVP2,2013-02-24 22:42:00,
2013-02-24 17:47:00,33.6,25.2,30.03,ESE,113,1.0,6.0,71,0.01,,,0.13,WUHU216DAVISVP2,2013-02-24 22:47:00,
2013-02-24 17:52:00,33.6,25.3,30.03,ESE,118,1.0,6.0,71,0.01,,,0.13,WUHU216DAVISVP2,2013-02-24 22:52:00,
2013-02-24 17:58:00,33.5,25.2,30.03,East,97,1.0,4.0,71,0.01,,,0.13,WUHU216DAVISVP2,2013-02-24 22:58:00,
2013-02-24 18:00:00,33.5,25.1,30.03,East,90,2.0,7.0,71,0.01,,,0.13,WUHU216DAVISVP2,2013-02-24 23:00:00,
2013-02-24 18:03:00,33.4,25.1,30.03,ESE,110,2.0,5.0,71,0.01,,,0.13,WUHU216DAVISVP2,2013-02-24 23:03:00,
2013-02-24 18:08:00,33.3,25.0,30.03,East,99,0.0,5.0,71,0.01,,,0.13,WUHU216DAVISVP2,2013-02-24 23:08:00,
2013-02-24 18:13:00,33.5,25.5,30.04,East,91,2.0,4.0,72,0.01,,,0.13,WUHU216DAVISVP2,2013-02-24 23:13:00,
2013-02-24 18:18:00,33.6,25.9,30.03,East,91,6.0,8.0,73,0.01,,,0.13,WUHU216DAVISVP2,2013-02-24 23:18:00,
2013-02-24 18:23:00,33.2,25.9,30.04,East,92,5.0,8.0,74,0.01,,,0.13,WUHU216DAVISVP2,2013-02-24 23:23:00,
2013-02-24 18:28:00,33.0,26.3,30.04,ENE,76,4.0,7.0,76,0.00,,,0.13,WUHU216DAVISVP2,2013-02-24 23:28:00,
2013-02-24 18:30:00,32.9,26.2,30.04,East,90,3.0,8.0,76,0.00,,,0.13,WUHU216DAVISVP2,2013-02-24 23:30:00,
2013-02-24 18:33:00,32.8,26.4,30.04,East,94,2.0,7.0,77,0.00,,,0.13,WUHU216DAVISVP2,2013-02-24 23:33:00,
2013-02-24 18:38:00,32.6,26.5,30.04,East,89,5.0,6.0,78,0.00,,,0.13,WUHU216DAVISVP2,2013-02-24 23:38:00,
2013-02-24 18:43:00,32.5,26.4,30.04,ENE,66,4.0,6.0,78,0.00,,,0.13,WUHU216DAVISVP2,2013-02-24 23:43:00,
2013-02-24 18:48:00,32.4,26.3,30.04,ENE,78,1.0,6.0,78,0.00,,,0.13,WUHU216DAVISVP2,2013-02-24 23:48:00,
2013-02-24 18:53:00,32.3,26.5,30.05,NE,52,3.0,5.0,79,0.00,,,0.13,WUHU216DAVISVP2,2013-02-24 23:53:00,
2013-02-24 18:59:00,32.2,26.4,30.05,ENE,65,5.0,5.0,79,0.00,,,0.13,WUHU216DAVISVP2,2013-02-24 23:59:00,
2013-02-24 19:00:00,32.2,26.7,30.05,East,90,2.0,6.0,80,0.00,,,0.13,WUHU216DAVISVP2,2013-02-25 00:00:00,
2013-02-24 19:04:00,32.1,26.6,30.05,ENE,74,3.0,5.0,80,0.00,,,0.13,WUHU216DAVISVP2,2013-02-25 00:04:00,
2013-02-24 19:09:00,32.1,26.6,30.05,ENE,75,3.0,5.0,80,0.00,,,0.13,WUHU216DAVISVP2,2013-02-25 00:09:00,
2013-02-24 19:14:00,32.0,26.5,30.05,ENE,60,2.0,5.0,80,0.00,,,0.13,WUHU216DAVISVP2,2013-02-25 00:14:00,
2013-02-24 19:19:00,32.0,26.5,30.05,East,83,2.0,5.0,80,0.00,,,0.13,WUHU216DAVISVP2,2013-02-25 00:19:00,
2013-02-24 19:24:00,32.0,26.5,30.05,ENE,68,2.0,4.0,80,0.00,,,0.13,WUHU216DAVISVP2,2013-02-25 00:24:00,
2013-02-24 19:29:00,32.0,26.5,30.05,East,83,1.0,4.0,80,0.00,,,0.13,WUHU216DAVISVP2,2013-02-25 00:29:00,
2013-02-24 19:30:00,32.0,26.5,30.05,ENE,68,2.0,5.0,80,0.00,,,0.13,WUHU216DAVISVP2,2013-02-25 00:30:00,
2013-02-24 19:34:00,32.0,26.5,30.06,East,89,1.0,4.0,80,0.00,,,0.13,WUHU216DAVISVP2,2013-02-25 00:34:00,
2013-02-24 19:39:00,31.9,26.4,30.06,ENE,62,3.0,5.0,80,0.00,,,0.13,WUHU216DAVISVP2,2013-02-25 00:39:00,
2013-02-24 19:44:00,31.8,26.6,30.06,East,91,2.0,5.0,81,0.00,,,0.13,WUHU216DAVISVP2,2013-02-25 00:44:00,
2013-02-24 19:49:00,31.8,26.6,30.06,East,85,1.0,5.0,81,0.00,,,0.13,WUHU216DAVISVP2,2013-02-25 00:49:00,
2013-02-24 19:55:00,31.7,26.5,30.06,East,97,4.0,5.0,81,0.00,,,0.13,WUHU216DAVISVP2,2013-02-25 00:55:00,
2013-02-24 20:00:00,31.6,26.4,30.06,East,96,2.0,7.0,81,0.00,,,0.13,WUHU216DAVISVP2,2013-02-25 01:00:00,
2013-02-24 20:05:00,31.3,25.9,30.07,ENE,60,6.0,8.0,80,0.00,,,0.13,WUHU216DAVISVP2,2013-02-25 01:05:00,
2013-02-24 20:10:00,31.1,26.0,30.07,East,82,4.0,8.0,81,0.00,,,0.13,WUHU216DAVISVP2,2013-02-25 01:10:00,
2013-02-24 20:15:00,30.9,25.8,30.07,East,79,6.0,7.0,81,0.00,,,0.13,WUHU216DAVISVP2,2013-02-25 01:15:00,
2013-02-24 20:20:00,30.6,25.5,30.07,ENE,72,2.0,9.0,81,0.00,,,0.13,WUHU216DAVISVP2,2013-02-25 01:20:00,
2013-02-24 20:25:00,30.4,25.6,30.07,East,97,2.0,9.0,82,0.00,,,0.13,WUHU216DAVISVP2,2013-02-25 01:25:00,
2013-02-24 20:30:00,30.1,25.3,30.06,East,79,2.0,8.0,82,0.00,,,0.13,WUHU216DAVISVP2,2013-02-25 01:30:00,
2013-02-24 20:35:00,29.7,25.2,30.07,ENE,75,3.0,8.0,83,0.00,,,0.13,WUHU216DAVISVP2,2013-02-25 01:35:00,
2013-02-24 20:40:00,29.4,24.9,30.07,East,92,2.0,7.0,83,0.00,,,0.13,WUHU216DAVISVP2,2013-02-25 01:40:00,
2013-02-24 20:45:00,29.1,24.8,30.07,East,86,2.0,5.0,84,0.00,,,0.13,WUHU216DAVISVP2,2013-02-25 01:45:00,
2013-02-24 20:51:00,28.9,24.7,30.07,East,93,3.0,5.0,84,0.00,,,0.13,WUHU216DAVISVP2,2013-02-25 01:51:00,
2013-02-24 20:56:00,28.7,24.5,30.07,East,90,4.0,5.0,84,0.00,,,0.13,WUHU216DAVISVP2,2013-02-25 01:56:00,
2013-02-24 21:00:00,28.5,24.6,30.08,East,90,3.0,5.0,85,0.00,,,0.13,WUHU216DAVISVP2,2013-02-25 02:00:00,
2013-02-24 21:01:00,28.5,24.5,30.08,ENE,66,3.0,5.0,85,0.00,,,0.13,WUHU216DAVISVP2,2013-02-25 02:01:00,
2013-02-24 21:06:00,28.3,24.3,30.08,East,99,1.0,5.0,85,0.00,,,0.13,WUHU216DAVISVP2,2013-02-25 02:06:00,
2013-02-24 21:11:00,28.2,24.5,30.08,East,82,2.0,5.0,86,0.00,,,0.13,WUHU216DAVISVP2,2013-02-25 02:11:00,
2013-02-24 21:16:00,28.0,24.4,30.08,ENE,76,2.0,5.0,86,0.00,,,0.13,WUHU216DAVISVP2,2013-02-25 02:16:00,
2013-02-24 21:21:00,27.9,24.3,30.08,East,81,1.0,4.0,86,0.00,,,0.13,WUHU216DAVISVP2,2013-02-25 02:21:00,
2013-02-24 21:26:00,27.7,24.0,30.08,East,81,1.0,3.0,86,0.00,,,0.13,WUHU216DAVISVP2,2013-02-25 02:26:00,
2013-02-24 21:30:00,27.6,24.2,30.09,East,90,2.0,4.0,87,0.00,,,0.13,WUHU216DAVISVP2,2013-02-25 02:30:00,
2013-02-24 21:32:00,27.6,24.2,30.08,ENE,70,1.0,3.0,87,0.00,,,0.13,WUHU216DAVISVP2,2013-02-25 02:32:00,
2013-02-24 21:37:00,27.5,24.1,30.09,East,79,2.0,3.0,87,0.00,,,0.13,WUHU216DAVISVP2,2013-02-25 02:37:00,
2013-02-24 21:42:00,27.4,24.0,30.09,East,79,2.0,4.0,87,0.00,,,0.13,WUHU216DAVISVP2,2013-02-25 02:42:00,
2013-02-24 21:47:00,27.3,23.9,30.09,East,95,1.0,4.0,87,0.00,,,0.13,WUHU216DAVISVP2,2013-02-25 02:47:00,
2013-02-24 21:52:00,27.2,23.8,30.09,East,97,2.0,4.0,87,0.00,,,0.13,WUHU216DAVISVP2,2013-02-25 02:52:00,
2013-02-24 21:57:00,27.1,24.0,30.09,SE,124,1.0,3.0,88,0.00,,,0.13,WUHU216DAVISVP2,2013-02-25 02:57:00,
2013-02-24 22:00:00,27.0,23.9,30.09,East,90,2.0,4.0,88,0.00,,,0.13,WUHU216DAVISVP2,2013-02-25 03:00:00,
2013-02-24 22:02:00,26.9,23.8,30.09,East,90,1.0,3.0,88,0.00,,,0.13,WUHU216DAVISVP2,2013-02-25 03:02:00,
2013-02-24 22:07:00,26.8,23.7,30.09,East,92,2.0,3.0,88,0.00,,,0.13,WUHU216DAVISVP2,2013-02-25 03:07:00,
2013-02-24 22:12:00,26.7,23.6,30.09,ESE,103,1.0,3.0,88,0.00,,,0.13,WUHU216DAVISVP2,2013-02-25 03:12:00,
2013-02-24 22:17:00,26.5,23.4,30.09,East,98,0.0,3.0,88,0.00,,,0.13,WUHU216DAVISVP2,2013-02-25 03:17:00,
2013-02-24 22:22:00,26.3,23.5,30.09,ESE,115,0.0,2.0,89,0.00,,,0.13,WUHU216DAVISVP2,2013-02-25 03:22:00,
2013-02-24 22:27:00,26.1,23.3,30.09,ESE,115,0.0,2.0,89,0.00,,,0.13,WUHU216DAVISVP2,2013-02-25 03:27:00,
2013-02-24 22:30:00,25.9,23.1,30.09,East,90,1.0,2.0,89,0.00,,,0.13,WUHU216DAVISVP2,2013-02-25 03:30:00,
2013-02-24 22:32:00,25.9,23.1,30.09,ESE,113,0.0,2.0,89,0.00,,,0.13,WUHU216DAVISVP2,2013-02-25 03:32:00,
2013-02-24 22:38:00,25.8,23.2,30.09,ESE,113,0.0,1.0,90,0.00,,,0.13,WUHU216DAVISVP2,2013-02-25 03:38:00,
2013-02-24 22:43:00,25.5,23.0,30.08,ESE,113,0.0,1.0,90,0.00,,,0.13,WUHU216DAVISVP2,2013-02-25 03:43:00,
2013-02-24 22:48:00,25.4,22.8,30.08,ESE,113,0.0,0.0,90,0.00,,,0.13,WUHU216DAVISVP2,2013-02-25 03:48:00,
2013-02-24 22:53:00,25.1,22.5,30.08,ESE,113,0.0,0.0,90,0.00,,,0.13,WUHU216DAVISVP2,2013-02-25 03:53:00,
2013-02-24 22:58:00,24.6,22.0,30.08,ESE,113,0.0,0.0,90,0.00,,,0.13,WUHU216DAVISVP2,2013-02-25 03:58:00,
2013-02-24 23:00:00,24.4,21.9,30.08,North,0,0.0,0.0,90,0.00,,,0.13,WUHU216DAVISVP2,2013-02-25 04:00:00,
2013-02-24 23:03:00,24.3,22.0,30.08,ESE,113,0.0,0.0,91,0.00,,,0.13,WUHU216DAVISVP2,2013-02-25 04:03:00,
2013-02-24 23:08:00,24.2,22.2,30.08,ESE,113,0.0,0.0,92,0.00,,,0.13,WUHU216DAVISVP2,2013-02-25 04:08:00,
2013-02-24 23:13:00,24.0,22.0,30.08,ESE,113,0.0,0.0,92,0.00,,,0.13,WUHU216DAVISVP2,2013-02-25 04:13:00,
2013-02-24 23:18:00,23.9,21.9,30.08,ESE,113,0.0,0.0,92,0.00,,,0.13,WUHU216DAVISVP2,2013-02-25 04:18:00,
2013-02-24 23:24:00,23.7,21.7,30.08,ESE,113,0.0,0.0,92,0.00,,,0.13,WUHU216DAVISVP2,2013-02-25 04:24:00,
2013-02-24 23:29:00,23.6,21.8,30.08,ESE,113,0.0,0.0,93,0.00,,,0.13,WUHU216DAVISVP2,2013-02-25 04:29:00,
2013-02-24 23:30:00,23.6,21.9,30.08,North,0,0.0,0.0,93,0.00,,,0.13,WUHU216DAVISVP2,2013-02-25 04:30:00,
2013-02-24 23:34:00,23.5,21.8,30.08,ESE,113,0.0,0.0,93,0.00,,,0.13,WUHU216DAVISVP2,2013-02-25 04:34:00,
2013-02-24 23:39:00,23.2,21.4,30.09,ESE,113,0.0,0.0,93,0.00,,,0.13,WUHU216DAVISVP2,2013-02-25 04:39:00,
2013-02-24 23:44:00,23.0,21.2,30.09,ESE,113,0.0,0.0,93,0.00,,,0.13,WUHU216DAVISVP2,2013-02-25 04:44:00,
2013-02-24 23:49:00,23.0,21.2,30.09,ESE,113,0.0,0.0,93,0.00,,,0.13,WUHU216DAVISVP2,2013-02-25 04:49:00,
2013-02-24 23:54:00,22.9,21.1,30.09,ESE,113,0.0,0.0,93,0.00,,,0.13,WUHU216DAVISVP2,2013-02-25 04:54:00,
2013-02-24 23:59:00,23.0,21.5,30.09,ESE,113,0.0,0.0,94,0.00,,,0.13,WUHU216DAVISVP2,2013-02-25 04:59:00,